| time (UTC) | temp F | wind direction | speed MPH | gust MPH | rain 1hr in | rain 24hr in | rain mn in | humidity % | barometer mb |
| 20260906040021 | 62 | 356 | 6.0 | 7.0 | 0.00 | 0.00 | 0.00 | 60 | 1013.7 |
| 20260906034521 | 62 | 54 | 0.0 | 3.0 | 0.00 | 0.00 | 0.00 | 62 | 1013.9 |
| 20260906033018 | 62 | 56 | 3.0 | 7.0 | 0.00 | 0.00 | 0.00 | 61 | 1014.2 |
| 20260906031552 | 61 | 97 | 4.0 | 7.0 | 0.00 | 0.00 | 0.00 | 63 | 1014.2 |
| 20260906030017 | 61 | 25 | 5.0 | 8.0 | 0.00 | 0.00 | 0.00 | 61 | 1013.7 |
| 20260906024535 | 61 | 70 | 3.0 | 6.0 | 0.00 | 0.00 | 0.00 | 61 | 1013.4 |
| 20260906023017 | 63 | 54 | 2.0 | 4.0 | 0.00 | 0.00 | 0.00 | 59 | 1013.6 |
| 20260906021515 | 64 | 49 | 1.0 | 5.0 | 0.00 | 0.00 | 0.00 | 57 | 1013.5 |
| 20260906020014 | 66 | 22 | 0.0 | 3.0 | 0.00 | 0.00 | 0.00 | 54 | 1013.6 |
| 20260906014518 | 68 | 6 | 0.0 | 4.0 | 0.00 | 0.00 | 0.00 | 51 | 1013.7 |
| 20260906013013 | 68 | 5 | 1.0 | 7.0 | 0.00 | 0.00 | 0.00 | 51 | 1013.6 |
| 20260906011512 | 67 | 341 | 5.0 | 7.0 | 0.00 | 0.00 | 0.00 | 50 | 1013.5 |
| 20260906010031 | 68 | 63 | 1.0 | 5.0 | 0.00 | 0.00 | 0.00 | 48 | 1013.5 |
| 20260906004511 | 68 | 56 | 3.0 | 6.0 | 0.00 | 0.00 | 0.00 | 48 | 1013.4 |
| 20260906003010 | 69 | 48 | 3.0 | 6.0 | 0.00 | 0.00 | 0.00 | 47 | 1013.5 |
| 20260906001507 | 68 | 39 | 2.0 | 7.0 | 0.00 | 0.00 | 0.00 | 48 | 1013.5 |
| 20260906000007 | 68 | 60 | 2.0 | 6.0 | 0.00 | 0.00 | 0.00 | 49 | 1013.5 |
| 20260905234502 | 68 | 127 | 4.0 | 6.0 | 0.00 | 0.00 | 0.00 | 50 | 1013.5 |
| 20260905233059 | 66 | 98 | 4.0 | 11.0 | 0.00 | 0.00 | 0.00 | 53 | 1013.5 |
| 20260905231558 | 66 | 86 | 5.0 | 11.0 | 0.00 | 0.00 | 0.00 | 53 | 1013.3 |
| 20260905230058 | 65 | 63 | 8.0 | 12.0 | 0.00 | 0.00 | 0.00 | 55 | 1013.6 |
| 20260905224555 | 66 | 83 | 9.0 | 13.0 | 0.00 | 0.00 | 0.00 | 56 | 1013.9 |
| 20260905223054 | 67 | 61 | 5.0 | 8.0 | 0.00 | 0.00 | 0.00 | 56 | 1014.1 |
| 20260905221552 | 66 | 61 | 5.0 | 13.0 | 0.00 | 0.00 | 0.00 | 56 | 1014.3 |
| 20260905220049 | 65 | 60 | 7.0 | 10.0 | 0.00 | 0.00 | 0.00 | 57 | 1014.4 |
| 20260905214550 | 63 | 36 | 4.0 | 12.0 | 0.00 | 0.00 | 0.00 | 62 | 1014.9 |
| 20260905213144 | 63 | 77 | 5.0 | 9.0 | 0.00 | 0.00 | 0.00 | 64 | 1014.9 |
| 20260905211601 | 62 | 72 | 7.0 | 10.0 | 0.00 | 0.00 | 0.00 | 63 | 1014.9 |
| 20260905210054 | 63 | 25 | 2.0 | 8.0 | 0.00 | 0.00 | 0.00 | 61 | 1014.8 |
| 20260905204545 | 63 | 65 | 3.0 | 7.0 | 0.00 | 0.00 | 0.00 | 59 | 1015.0 |
| 20260905203043 | 63 | 62 | 6.0 | 10.0 | 0.00 | 0.00 | 0.00 | 60 | 1015.0 |
| 20260905201550 | 62 | 75 | 5.0 | 7.0 | 0.00 | 0.00 | 0.00 | 60 | 1015.2 |
| 20260905200041 | 63 | 104 | 3.0 | 5.0 | 0.00 | 0.00 | 0.00 | 60 | 1015.4 |
| 20260905194540 | 64 | 246 | 0.0 | 4.0 | 0.00 | 0.00 | 0.00 | 58 | 1015.1 |
| 20260905193039 | 63 | 1 | 1.0 | 5.0 | 0.00 | 0.00 | 0.00 | 59 | 1014.9 |
| 20260905191537 | 63 | 188 | 2.0 | 6.0 | 0.00 | 0.00 | 0.00 | 59 | 1015.2 |
| 20260905190037 | 62 | 176 | 2.0 | 7.0 | 0.00 | 0.00 | 0.00 | 60 | 1015.4 |
| 20260905184533 | 61 | 283 | 2.0 | 6.0 | 0.00 | 0.00 | 0.00 | 63 | 1015.3 |
| 20260905183036 | 61 | 228 | 1.0 | 6.0 | 0.00 | 0.00 | 0.00 | 61 | 1015.5 |
| 20260905181531 | 60 | 225 | 4.0 | 6.0 | 0.00 | 0.00 | 0.00 | 63 | 1015.6 |
| 20260905180029 | 61 | 215 | 2.0 | 3.0 | 0.00 | 0.00 | 0.00 | 65 | 1016.0 |
| 20260905174529 | 60 | 243 | 3.0 | 4.0 | 0.00 | 0.00 | 0.00 | 65 | 1016.0 |
| 20260905173050 | 59 | 222 | 3.0 | 7.0 | 0.00 | 0.00 | 0.00 | 69 | 1016.1 |
| 20260905171523 | 59 | 131 | 1.0 | 4.0 | 0.00 | 0.00 | 0.00 | 73 | 1016.1 |
| 20260905170021 | 58 | 243 | 1.0 | 3.0 | 0.00 | 0.00 | 0.00 | 74 | 1016.0 |
| 20260905164519 | 57 | 262 | 2.0 | 4.0 | 0.00 | 0.00 | 0.00 | 75 | 1015.9 |
| 20260905163016 | 56 | 249 | 0.0 | 2.0 | 0.00 | 0.00 | 0.00 | 78 | 1015.8 |
| 20260905161515 | 56 | 119 | 1.0 | 2.0 | 0.00 | 0.00 | 0.00 | 81 | 1015.7 |
| 20260905160010 | 55 | 114 | 1.0 | 2.0 | 0.00 | 0.00 | 0.00 | 84 | 1015.6 |
| 20260905154509 | 55 | 91 | 0.0 | 1.0 | 0.00 | 0.00 | 0.00 | 85 | 1015.6 |
| 20260905153008 | 54 | 90 | 1.0 | 2.0 | 0.00 | 0.00 | 0.00 | 87 | 1015.6 |
| 20260905151508 | 53 | 96 | 3.0 | 4.0 | 0.00 | 0.00 | 0.00 | 87 | 1015.6 |
| 20260905150006 | 53 | 88 | 3.0 | 5.0 | 0.00 | 0.00 | 0.00 | 88 | 1015.5 |
| 20260905144506 | 52 | 110 | 5.0 | 7.0 | 0.00 | 0.00 | 0.00 | 87 | 1015.5 |
| 20260905143001 | 51 | 85 | 2.0 | 5.0 | 0.00 | 0.00 | 0.00 | 88 | 1015.3 |
| 20260905141602 | 51 | 99 | 5.0 | 6.0 | 0.00 | 0.00 | 0.00 | 1015.1 | |
| 20260905140056 | 0 | 0.0 | 0.0 | 0.00 | 0.00 | 0.00 | 1015.1 | ||
| 20260905134559 | 0 | 0.0 | 0.0 | 0.00 | 0.00 | 0.00 | 1015.0 | ||
| 20260905133054 | 0 | 0.0 | 0.0 | 0.00 | 0.00 | 0.00 | 1015.0 | ||
| 20260905131543 | 0 | 0.0 | 0.0 | 0.00 | 0.00 | 0.00 | 1015.0 | ||
| 20260905130038 | 0 | 0.0 | 0.0 | 0.00 | 0.00 | 0.00 | 1014.8 | ||
| 20260905124540 | 0 | 0.0 | 0.0 | 0.00 | 0.00 | 0.00 | 1014.7 | ||
| 20260905123029 | 0 | 0.0 | 0.0 | 0.00 | 0.00 | 0.00 | 1014.9 | ||
| 20260905121525 | 0 | 0.0 | 0.0 | 0.00 | 0.00 | 0.00 | 1014.9 | ||
| 20260905120020 | 0 | 0.0 | 0.0 | 0.00 | 0.00 | 0.00 | 1015.1 | ||
| 20260905114517 | 0 | 0.0 | 0.0 | 0.00 | 0.00 | 0.00 | 1014.8 | ||
| 20260905113012 | 0 | 0.0 | 0.0 | 0.00 | 0.00 | 0.00 | 1014.9 | ||
| 20260905111508 | 0 | 0.0 | 0.0 | 0.00 | 0.00 | 0.00 | 1014.9 | ||
| 20260905110004 | 0 | 0.0 | 0.0 | 0.00 | 0.00 | 0.00 | 1014.4 | ||
| 20260905104559 | 0 | 0.0 | 0.0 | 0.00 | 0.00 | 0.00 | 1014.3 | ||
| 20260905103055 | 0 | 0.0 | 0.0 | 0.00 | 0.00 | 0.00 | 1014.3 | ||
| 20260905101603 | 0 | 0.0 | 0.0 | 0.00 | 0.00 | 0.00 | 1014.2 | ||
| 20260905100046 | 0 | 0.0 | 0.0 | 0.00 | 0.00 | 0.00 | 1014.1 | ||
| 20260905094543 | 54 | 72 | 7.0 | 10.0 | 0.00 | 0.00 | 0.00 | 72 | 1014.0 |
| 20260905093042 | 53 | 77 | 6.0 | 10.0 | 0.00 | 0.00 | 0.00 | 77 | 1014.1 |
| 20260905091549 | 53 | 76 | 4.0 | 5.0 | 0.00 | 0.00 | 0.00 | 74 | 1014.3 |
| 20260905090038 | 53 | 117 | 1.0 | 3.0 | 0.00 | 0.00 | 0.00 | 75 | 1014.1 |
| 20260905084538 | 53 | 117 | 2.0 | 4.0 | 0.00 | 0.00 | 0.00 | 76 | 1014.0 |
| 20260905083035 | 51 | 226 | 3.0 | 6.0 | 0.00 | 0.00 | 0.00 | 79 | 1014.3 |
| 20260905081534 | 53 | 271 | 4.0 | 6.0 | 0.00 | 0.00 | 0.00 | 74 | 1014.0 |
| 20260905080031 | 55 | 208 | 1.0 | 6.0 | 0.00 | 0.00 | 0.00 | 73 | 1013.7 |
| 20260905074532 | 53 | 89 | 5.0 | 9.0 | 0.00 | 0.00 | 0.00 | 75 | 1013.3 |
| 20260905073023 | 53 | 86 | 6.0 | 7.0 | 0.00 | 0.00 | 0.00 | 73 | 1013.2 |
| 20260905071520 | 53 | 79 | 3.0 | 6.0 | 0.00 | 0.00 | 0.00 | 73 | 1013.2 |
| 20260905070017 | 53 | 117 | 2.0 | 3.0 | 0.00 | 0.00 | 0.00 | 72 | 1013.1 |
| 20260905064515 | 53 | 262 | 1.0 | 10.0 | 0.00 | 0.00 | 0.00 | 72 | 1012.8 |
| 20260905063011 | 54 | 101 | 12.0 | 16.0 | 0.00 | 0.00 | 0.00 | 73 | 1012.3 |
| 20260905061511 | 55 | 89 | 11.0 | 14.0 | 0.00 | 0.00 | 0.00 | 72 | 1012.3 |
| 20260905060012 | 56 | 83 | 10.0 | 18.0 | 0.00 | 0.00 | 0.00 | 70 | 1012.2 |
| 20260905054510 | 56 | 86 | 14.0 | 17.0 | 0.00 | 0.00 | 0.00 | 69 | 1012.1 |
| 20260905053009 | 56 | 74 | 14.0 | 17.0 | 0.00 | 0.00 | 0.00 | 68 | 1012.2 |
| 20260905051509 | 56 | 70 | 15.0 | 18.0 | 0.00 | 0.00 | 0.00 | 70 | 1012.0 |
| 20260905050008 | 56 | 75 | 15.0 | 16.0 | 0.00 | 0.00 | 0.00 | 69 | 1012.0 |
| 20260905044510 | 56 | 83 | 14.0 | 15.0 | 0.00 | 0.00 | 0.00 | 69 | 1012.1 |
| 20260905043006 | 57 | 89 | 11.0 | 15.0 | 0.00 | 0.00 | 0.00 | 69 | 1012.1 |
| 20260905041507 | 58 | 79 | 14.0 | 15.0 | 0.00 | 0.00 | 0.00 | 65 | 1012.3 |